Time,TemperatureF,DewpointF,PressureIn,WindDirection,WindDirectionDegrees,WindSpeedMPH,WindSpeedGustMPH,Humidity,HourlyPrecipIn,Conditions,Clouds,dailyrainin,SoftwareType,DateUTC
2013-04-28 00:01:00,51.1,40.0,30.35,ENE,67,3.7,6.3,65,0.00,,,0.00,Rainwise IP-100,2013-04-28 04:01:00,
2013-04-28 00:06:00,50.8,41.0,30.36,ENE,67,3.0,6.8,68,0.00,,,0.00,Rainwise IP-100,2013-04-28 04:06:00,
2013-04-28 00:11:00,50.6,41.0,30.36,ENE,67,3.5,6.1,70,0.00,,,0.00,Rainwise IP-100,2013-04-28 04:11:00,
2013-04-28 00:16:00,50.4,41.0,30.35,NNE,22,2.8,7.0,70,0.00,,,0.00,Rainwise IP-100,2013-04-28 04:16:00,
2013-04-28 00:21:00,50.2,40.0,30.35,NNE,22,1.4,6.1,70,0.00,,,0.00,Rainwise IP-100,2013-04-28 04:21:00,
2013-04-28 00:23:00,50.2,41.0,30.36,ENE,67,2.3,6.1,71,0.00,,,0.00,Rainwise IP-100,2013-04-28 04:23:00,
2013-04-28 00:24:00,50.2,41.0,30.36,ENE,67,2.8,6.1,71,0.00,,,0.00,Rainwise IP-100,2013-04-28 04:24:00,
2013-04-28 00:27:00,50.1,41.0,30.36,ENE,67,1.6,4.7,71,0.00,,,0.00,Rainwise IP-100,2013-04-28 04:27:00,
2013-04-28 00:32:00,50.0,41.0,30.36,ENE,67,1.4,4.7,72,0.00,,,0.00,Rainwise IP-100,2013-04-28 04:32:00,
2013-04-28 00:37:00,50.0,41.0,30.36,ENE,67,0.0,4.4,72,0.00,,,0.00,Rainwise IP-100,2013-04-28 04:37:00,
2013-04-28 00:42:00,49.9,41.0,30.36,ENE,67,2.3,5.1,72,0.00,,,0.00,Rainwise IP-100,2013-04-28 04:42:00,
2013-04-28 00:47:00,49.8,41.0,30.35,NE,45,1.6,4.7,73,0.00,,,0.00,Rainwise IP-100,2013-04-28 04:47:00,
2013-04-28 00:52:00,49.6,41.0,30.35,ENE,67,2.1,2.6,73,0.00,,,0.00,Rainwise IP-100,2013-04-28 04:52:00,
2013-04-28 00:57:00,49.4,41.0,30.35,ENE,67,1.2,4.4,73,0.00,,,0.00,Rainwise IP-100,2013-04-28 04:57:00,
2013-04-28 01:02:00,49.2,41.0,30.35,NE,45,0.0,3.0,74,0.00,,,0.00,Rainwise IP-100,2013-04-28 05:02:00,
2013-04-28 01:08:00,48.9,41.0,30.35,NE,45,0.0,1.2,75,0.00,,,0.00,Rainwise IP-100,2013-04-28 05:08:00,
2013-04-28 01:13:00,48.6,42.0,30.35,NNE,22,1.2,1.4,76,0.00,,,0.00,Rainwise IP-100,2013-04-28 05:13:00,
2013-04-28 01:18:00,48.2,41.0,30.35,NNE,22,0.0,1.4,76,0.00,,,0.00,Rainwise IP-100,2013-04-28 05:18:00,
2013-04-28 01:23:00,47.9,41.0,30.35,NNE,22,0.0,1.2,77,0.00,,,0.00,Rainwise IP-100,2013-04-28 05:23:00,
2013-04-28 01:28:00,47.7,40.0,30.34,NNE,22,0.0,1.4,77,0.00,,,0.00,Rainwise IP-100,2013-04-28 05:28:00,
2013-04-28 01:33:00,47.4,41.0,30.34,North,360,1.6,2.1,78,0.00,,,0.00,Rainwise IP-100,2013-04-28 05:33:00,
2013-04-28 01:38:00,47.3,41.0,30.34,North,360,2.1,2.3,78,0.00,,,0.00,Rainwise IP-100,2013-04-28 05:38:00,
2013-04-28 01:44:00,47.0,40.0,30.34,North,360,2.3,2.6,79,0.00,,,0.00,Rainwise IP-100,2013-04-28 05:44:00,
2013-04-28 01:49:00,46.6,40.0,30.34,NNW,337,2.8,3.0,79,0.00,,,0.00,Rainwise IP-100,2013-04-28 05:49:00,
2013-04-28 01:54:00,46.5,40.0,30.34,NNW,337,2.6,3.3,79,0.00,,,0.00,Rainwise IP-100,2013-04-28 05:54:00,
2013-04-28 01:59:00,46.5,40.0,30.34,NNW,337,2.6,3.7,78,0.00,,,0.00,Rainwise IP-100,2013-04-28 05:59:00,
2013-04-28 02:04:00,46.5,40.0,30.34,NNW,337,3.0,3.5,77,0.00,,,0.00,Rainwise IP-100,2013-04-28 06:04:00,
2013-04-28 02:09:00,46.2,39.0,30.33,NNW,337,4.2,5.4,77,0.00,,,0.00,Rainwise IP-100,2013-04-28 06:09:00,
2013-04-28 02:14:00,45.9,39.0,30.34,NNW,337,3.7,6.5,77,0.00,,,0.00,Rainwise IP-100,2013-04-28 06:14:00,
2013-04-28 02:19:00,45.6,39.0,30.34,NNW,337,1.9,4.4,77,0.00,,,0.00,Rainwise IP-100,2013-04-28 06:19:00,
2013-04-28 02:25:00,45.5,39.0,30.34,NNW,337,0.0,2.8,78,0.00,,,0.00,Rainwise IP-100,2013-04-28 06:25:00,
2013-04-28 02:30:00,45.5,39.0,30.34,NNW,337,1.4,2.3,79,0.00,,,0.00,Rainwise IP-100,2013-04-28 06:30:00,
2013-04-28 02:35:00,45.4,39.0,30.34,NNW,337,1.4,3.0,80,0.00,,,0.00,Rainwise IP-100,2013-04-28 06:35:00,
2013-04-28 02:40:00,45.3,39.0,30.33,NNW,337,2.6,3.3,80,0.00,,,0.00,Rainwise IP-100,2013-04-28 06:40:00,
2013-04-28 02:45:00,45.1,39.0,30.33,NNW,337,2.3,3.5,81,0.00,,,0.00,Rainwise IP-100,2013-04-28 06:45:00,
2013-04-28 02:50:00,44.9,39.0,30.33,NNW,337,1.9,2.8,81,0.00,,,0.00,Rainwise IP-100,2013-04-28 06:50:00,
2013-04-28 02:55:00,44.8,40.0,30.33,NNW,337,2.3,2.8,82,0.00,,,0.00,Rainwise IP-100,2013-04-28 06:55:00,
2013-04-28 03:01:00,44.6,40.0,30.33,NNW,337,2.3,3.0,82,0.00,,,0.00,Rainwise IP-100,2013-04-28 07:01:00,
2013-04-28 03:06:00,44.6,40.0,30.32,NNW,337,2.6,2.6,83,0.00,,,0.00,Rainwise IP-100,2013-04-28 07:06:00,
2013-04-28 03:11:00,44.6,40.0,30.32,NNW,337,3.3,3.3,83,0.00,,,0.00,Rainwise IP-100,2013-04-28 07:11:00,
2013-04-28 03:16:00,44.3,39.0,30.32,NNW,337,2.3,3.3,83,0.00,,,0.00,Rainwise IP-100,2013-04-28 07:16:00,
2013-04-28 03:21:00,44.0,39.0,30.32,NNW,337,2.3,3.0,83,0.00,,,0.00,Rainwise IP-100,2013-04-28 07:21:00,
2013-04-28 03:26:00,44.0,39.0,30.32,NNW,337,3.0,4.0,83,0.00,,,0.00,Rainwise IP-100,2013-04-28 07:26:00,
2013-04-28 03:31:00,44.0,39.0,30.32,North,360,2.3,4.2,83,0.00,,,0.00,Rainwise IP-100,2013-04-28 07:31:00,
2013-04-28 03:32:00,44.0,39.0,30.32,North,360,1.4,4.2,83,0.00,,,0.00,Rainwise IP-100,2013-04-28 07:32:00,
2013-04-28 03:33:00,44.0,39.0,30.32,North,360,2.3,4.2,83,0.00,,,0.00,Rainwise IP-100,2013-04-28 07:33:00,
2013-04-28 03:38:00,44.0,39.0,30.32,North,360,1.6,3.5,83,0.00,,,0.00,Rainwise IP-100,2013-04-28 07:38:00,
2013-04-28 03:43:00,44.0,39.0,30.32,NNW,337,3.0,4.7,84,0.00,,,0.00,Rainwise IP-100,2013-04-28 07:43:00,
2013-04-28 03:48:00,44.0,39.0,30.32,NNE,22,1.2,4.2,84,0.00,,,0.00,Rainwise IP-100,2013-04-28 07:48:00,
2013-04-28 03:53:00,44.0,39.0,30.32,NNE,22,0.0,2.8,84,0.00,,,0.00,Rainwise IP-100,2013-04-28 07:53:00,
2013-04-28 03:58:00,44.1,39.0,30.32,NNW,337,3.0,4.2,84,0.00,,,0.00,Rainwise IP-100,2013-04-28 07:58:00,
2013-04-28 03:59:00,44.1,39.0,30.32,NNW,337,2.8,4.4,84,0.00,,,0.00,Rainwise IP-100,2013-04-28 07:59:00,
2013-04-28 04:00:00,44.2,39.0,30.32,NNW,337,3.0,4.4,84,0.00,,,0.00,Rainwise IP-100,2013-04-28 08:00:00,
2013-04-28 04:02:00,44.2,39.0,30.32,NNW,337,3.0,4.4,84,0.00,,,0.00,Rainwise IP-100,2013-04-28 08:02:00,
2013-04-28 04:03:00,44.2,39.0,30.32,NNW,337,2.6,4.4,84,0.00,,,0.00,Rainwise IP-100,2013-04-28 08:03:00,
2013-04-28 04:07:00,44.3,39.0,30.32,NNW,337,1.9,4.0,84,0.00,,,0.00,Rainwise IP-100,2013-04-28 08:07:00,
2013-04-28 04:12:00,44.1,39.0,30.32,NNW,337,2.1,3.0,84,0.00,,,0.00,Rainwise IP-100,2013-04-28 08:12:00,
2013-04-28 04:17:00,43.9,40.0,30.32,NNW,337,3.7,4.0,85,0.00,,,0.00,Rainwise IP-100,2013-04-28 08:17:00,
2013-04-28 04:22:00,43.9,40.0,30.32,NNW,337,3.3,4.7,85,0.00,,,0.00,Rainwise IP-100,2013-04-28 08:22:00,
2013-04-28 04:27:00,43.8,40.0,30.32,NNW,337,3.0,3.5,86,0.00,,,0.00,Rainwise IP-100,2013-04-28 08:27:00,
2013-04-28 04:32:00,43.7,40.0,30.32,NNW,337,3.0,3.7,86,0.00,,,0.00,Rainwise IP-100,2013-04-28 08:32:00,
2013-04-28 04:38:00,43.6,40.0,30.32,NNW,337,4.0,5.1,86,0.00,,,0.00,Rainwise IP-100,2013-04-28 08:38:00,
2013-04-28 04:43:00,43.3,39.0,30.32,NNW,337,4.0,5.1,86,0.00,,,0.00,Rainwise IP-100,2013-04-28 08:43:00,
2013-04-28 04:48:00,43.1,39.0,30.32,NNW,337,3.0,4.9,86,0.00,,,0.00,Rainwise IP-100,2013-04-28 08:48:00,
2013-04-28 04:53:00,43.0,39.0,30.32,NNW,337,2.3,3.7,86,0.00,,,0.00,Rainwise IP-100,2013-04-28 08:53:00,
2013-04-28 04:58:00,42.8,39.0,30.32,NNW,337,2.8,3.3,87,0.00,,,0.00,Rainwise IP-100,2013-04-28 08:58:00,
2013-04-28 05:03:00,42.9,39.0,30.32,NNW,337,2.1,3.0,87,0.00,,,0.00,Rainwise IP-100,2013-04-28 09:03:00,
2013-04-28 05:08:00,42.9,39.0,30.32,NNW,337,2.1,2.6,87,0.00,,,0.00,Rainwise IP-100,2013-04-28 09:08:00,
2013-04-28 05:13:00,42.8,40.0,30.32,North,360,2.6,4.9,88,0.00,,,0.00,Rainwise IP-100,2013-04-28 09:13:00,
2013-04-28 05:18:00,42.8,40.0,30.32,NNW,337,3.5,4.2,88,0.00,,,0.00,Rainwise IP-100,2013-04-28 09:18:00,
2013-04-28 05:24:00,42.8,40.0,30.31,NNW,337,3.3,3.7,88,0.00,,,0.00,Rainwise IP-100,2013-04-28 09:24:00,
2013-04-28 05:29:00,42.8,40.0,30.32,NNW,337,2.8,5.1,88,0.00,,,0.00,Rainwise IP-100,2013-04-28 09:29:00,
2013-04-28 05:34:00,42.8,40.0,30.32,NNW,337,2.8,4.7,89,0.00,,,0.00,Rainwise IP-100,2013-04-28 09:34:00,
2013-04-28 05:39:00,42.8,40.0,30.32,NNE,22,1.9,5.1,89,0.00,,,0.00,Rainwise IP-100,2013-04-28 09:39:00,
2013-04-28 05:44:00,42.9,40.0,30.32,North,360,2.1,4.0,90,0.00,,,0.00,Rainwise IP-100,2013-04-28 09:44:00,
2013-04-28 05:49:00,42.9,40.0,30.32,NNW,337,2.8,3.3,90,0.00,,,0.00,Rainwise IP-100,2013-04-28 09:49:00,
2013-04-28 05:54:00,43.0,40.0,30.32,North,360,2.6,4.2,90,0.00,,,0.00,Rainwise IP-100,2013-04-28 09:54:00,
2013-04-28 06:00:00,43.0,40.0,30.32,North,360,2.3,4.0,90,0.00,,,0.00,Rainwise IP-100,2013-04-28 10:00:00,
2013-04-28 06:05:00,42.9,40.0,30.32,North,360,2.3,3.0,91,0.00,,,0.00,Rainwise IP-100,2013-04-28 10:05:00,
2013-04-28 06:10:00,42.9,40.0,30.32,NNW,337,2.3,4.4,91,0.00,,,0.00,Rainwise IP-100,2013-04-28 10:10:00,
2013-04-28 06:15:00,43.1,40.0,30.32,NNW,337,2.8,5.1,91,0.00,,,0.00,Rainwise IP-100,2013-04-28 10:15:00,
2013-04-28 06:20:00,43.2,40.0,30.32,NNW,337,2.8,4.4,91,0.00,,,0.00,Rainwise IP-100,2013-04-28 10:20:00,
2013-04-28 06:26:00,43.4,40.0,30.33,NNW,337,2.8,4.0,91,0.00,,,0.00,Rainwise IP-100,2013-04-28 10:26:00,
2013-04-28 06:31:00,43.5,41.0,30.34,NNW,337,3.0,4.0,91,0.00,,,0.00,Rainwise IP-100,2013-04-28 10:31:00,
2013-04-28 06:36:00,43.6,41.0,30.33,NNW,337,2.6,3.7,91,0.00,,,0.00,Rainwise IP-100,2013-04-28 10:36:00,
2013-04-28 06:41:00,43.9,41.0,30.34,NNW,337,2.8,3.3,91,0.00,,,0.00,Rainwise IP-100,2013-04-28 10:41:00,
2013-04-28 06:46:00,44.4,41.0,30.34,NNW,337,1.9,4.0,90,0.00,,,0.00,Rainwise IP-100,2013-04-28 10:46:00,
2013-04-28 06:51:00,44.7,42.0,30.34,NNW,337,3.0,4.2,90,0.00,,,0.00,Rainwise IP-100,2013-04-28 10:51:00,
2013-04-28 06:56:00,44.9,42.0,30.34,NNW,337,3.5,4.2,90,0.00,,,0.00,Rainwise IP-100,2013-04-28 10:56:00,
2013-04-28 07:01:00,45.1,42.0,30.34,North,360,2.8,4.0,89,0.00,,,0.00,Rainwise IP-100,2013-04-28 11:01:00,
2013-04-28 07:06:00,45.5,43.0,30.34,NNE,22,4.4,4.7,89,0.00,,,0.00,Rainwise IP-100,2013-04-28 11:06:00,
2013-04-28 07:11:00,46.4,43.0,30.34,NNE,22,2.8,5.1,89,0.00,,,0.00,Rainwise IP-100,2013-04-28 11:11:00,
2013-04-28 07:16:00,47.0,43.0,30.34,NNW,337,3.0,6.1,88,0.00,,,0.00,Rainwise IP-100,2013-04-28 11:16:00,
2013-04-28 07:20:00,47.2,43.0,30.34,NNE,22,0.0,4.4,88,0.00,,,0.00,Rainwise IP-100,2013-04-28 11:20:00,
2013-04-28 07:25:00,47.8,45.0,30.34,NE,45,3.5,4.0,87,0.00,,,0.00,Rainwise IP-100,2013-04-28 11:25:00,
2013-04-28 07:30:00,47.8,45.0,30.34,NNE,22,6.1,6.1,87,0.00,,,0.00,Rainwise IP-100,2013-04-28 11:30:00,
2013-04-28 07:35:00,47.8,44.0,30.34,NE,45,1.2,6.5,86,0.00,,,0.00,Rainwise IP-100,2013-04-28 11:35:00,
2013-04-28 07:40:00,48.3,44.0,30.34,NE,45,2.1,4.0,86,0.00,,,0.00,Rainwise IP-100,2013-04-28 11:40:00,
2013-04-28 07:46:00,48.7,45.0,30.35,NNE,22,3.0,3.7,85,0.00,,,0.00,Rainwise IP-100,2013-04-28 11:46:00,
2013-04-28 07:51:00,49.6,45.0,30.35,NNE,22,0.0,4.4,84,0.00,,,0.00,Rainwise IP-100,2013-04-28 11:51:00,
2013-04-28 07:56:00,50.2,45.0,30.35,ENE,67,1.4,3.0,83,0.00,,,0.00,Rainwise IP-100,2013-04-28 11:56:00,
2013-04-28 08:01:00,50.3,45.0,30.35,NE,45,1.9,3.3,81,0.00,,,0.00,Rainwise IP-100,2013-04-28 12:01:00,
2013-04-28 08:06:00,50.4,45.0,30.36,ESE,112,2.1,3.7,81,0.00,,,0.00,Rainwise IP-100,2013-04-28 12:06:00,
2013-04-28 08:11:00,50.2,44.0,30.35,ESE,112,3.0,4.2,81,0.00,,,0.00,Rainwise IP-100,2013-04-28 12:11:00,
2013-04-28 08:16:00,49.9,44.0,30.36,ESE,112,5.8,6.1,81,0.00,,,0.00,Rainwise IP-100,2013-04-28 12:16:00,
2013-04-28 08:21:00,49.3,44.0,30.36,ESE,112,4.0,6.5,82,0.00,,,0.00,Rainwise IP-100,2013-04-28 12:21:00,
2013-04-28 08:27:00,49.1,44.0,30.36,ESE,112,8.2,8.2,83,0.00,,,0.00,Rainwise IP-100,2013-04-28 12:27:00,
2013-04-28 08:32:00,49.0,44.0,30.36,ESE,112,4.2,7.9,84,0.00,,,0.00,Rainwise IP-100,2013-04-28 12:32:00,
2013-04-28 08:37:00,49.0,44.0,30.36,ESE,112,7.2,7.7,84,0.00,,,0.00,Rainwise IP-100,2013-04-28 12:37:00,
2013-04-28 08:42:00,49.1,45.0,30.36,East,90,6.3,8.2,85,0.00,,,0.00,Rainwise IP-100,2013-04-28 12:42:00,
2013-04-28 08:47:00,49.0,45.0,30.36,ESE,112,6.3,8.9,85,0.00,,,0.00,Rainwise IP-100,2013-04-28 12:47:00,
2013-04-28 08:52:00,49.3,45.0,30.36,East,90,4.4,8.4,85,0.00,,,0.00,Rainwise IP-100,2013-04-28 12:52:00,
2013-04-28 08:57:00,49.5,45.0,30.36,ESE,112,6.8,8.2,84,0.00,,,0.00,Rainwise IP-100,2013-04-28 12:57:00,
2013-04-28 09:03:00,49.8,45.0,30.36,ESE,112,3.7,7.5,83,0.00,,,0.00,Rainwise IP-100,2013-04-28 13:03:00,
2013-04-28 09:08:00,50.1,45.0,30.36,ESE,112,4.7,7.7,83,0.00,,,0.00,Rainwise IP-100,2013-04-28 13:08:00,
2013-04-28 09:12:00,50.2,45.0,30.36,ESE,112,6.1,7.0,82,0.00,,,0.00,Rainwise IP-100,2013-04-28 13:12:00,
2013-04-28 09:17:00,50.1,44.0,30.36,ESE,112,7.0,7.5,81,0.00,,,0.00,Rainwise IP-100,2013-04-28 13:17:00,
2013-04-28 09:23:00,50.1,44.0,30.36,East,90,6.5,8.2,81,0.00,,,0.00,Rainwise IP-100,2013-04-28 13:23:00,
2013-04-28 09:28:00,50.2,44.0,30.36,ESE,112,5.4,7.9,81,0.00,,,0.00,Rainwise IP-100,2013-04-28 13:28:00,
2013-04-28 09:33:00,50.4,45.0,30.36,ESE,112,5.4,6.8,80,0.00,,,0.00,Rainwise IP-100,2013-04-28 13:33:00,
2013-04-28 09:38:00,50.6,44.0,30.36,ESE,112,5.1,6.5,79,0.00,,,0.00,Rainwise IP-100,2013-04-28 13:38:00,
2013-04-28 09:43:00,50.7,43.0,30.36,ESE,112,5.1,6.1,77,0.00,,,0.00,Rainwise IP-100,2013-04-28 13:43:00,
2013-04-28 09:48:00,50.8,44.0,30.36,ESE,112,4.9,6.5,76,0.00,,,0.00,Rainwise IP-100,2013-04-28 13:48:00,
2013-04-28 09:53:00,50.9,44.0,30.36,ESE,112,4.4,5.6,76,0.00,,,0.00,Rainwise IP-100,2013-04-28 13:53:00,
2013-04-28 09:58:00,51.1,44.0,30.36,ESE,112,4.9,5.6,76,0.00,,,0.00,Rainwise IP-100,2013-04-28 13:58:00,
2013-04-28 10:03:00,51.1,44.0,30.36,ESE,112,5.1,6.1,76,0.00,,,0.00,Rainwise IP-100,2013-04-28 14:03:00,
2013-04-28 10:09:00,51.4,44.0,30.36,ESE,112,4.7,5.4,76,0.00,,,0.00,Rainwise IP-100,2013-04-28 14:09:00,
2013-04-28 10:14:00,51.5,44.0,30.35,ESE,112,4.7,5.8,75,0.00,,,0.00,Rainwise IP-100,2013-04-28 14:14:00,
2013-04-28 10:19:00,51.5,44.0,30.35,ESE,112,4.0,5.6,75,0.00,,,0.00,Rainwise IP-100,2013-04-28 14:19:00,
2013-04-28 10:24:00,51.9,45.0,30.35,ESE,112,5.1,5.1,76,0.00,,,0.00,Rainwise IP-100,2013-04-28 14:24:00,
2013-04-28 10:29:00,51.7,45.0,30.35,ESE,112,4.0,5.8,77,0.00,,,0.00,Rainwise IP-100,2013-04-28 14:29:00,
2013-04-28 10:34:00,51.6,45.0,30.35,ESE,112,2.6,4.9,78,0.00,,,0.00,Rainwise IP-100,2013-04-28 14:34:00,
2013-04-28 10:39:00,52.1,45.0,30.35,ESE,112,4.9,4.9,78,0.00,,,0.00,Rainwise IP-100,2013-04-28 14:39:00,
2013-04-28 10:45:00,52.4,45.0,30.35,SE,135,3.7,5.1,78,0.00,,,0.00,Rainwise IP-100,2013-04-28 14:45:00,
2013-04-28 10:50:00,52.3,45.0,30.35,ESE,112,3.7,6.1,78,0.00,,,0.00,Rainwise IP-100,2013-04-28 14:50:00,
2013-04-28 10:55:00,52.3,45.0,30.35,SE,135,5.8,6.1,77,0.00,,,0.00,Rainwise IP-100,2013-04-28 14:55:00,
2013-04-28 11:00:00,52.3,45.0,30.35,SE,135,4.9,6.8,77,0.00,,,0.00,Rainwise IP-100,2013-04-28 15:00:00,
2013-04-28 11:05:00,51.9,46.0,30.35,ESE,112,6.5,7.7,79,0.00,,,0.00,Rainwise IP-100,2013-04-28 15:05:00,
2013-04-28 11:10:00,51.3,46.0,30.35,ESE,112,7.5,7.7,81,0.00,,,0.00,Rainwise IP-100,2013-04-28 15:10:00,
2013-04-28 11:15:00,50.9,47.0,30.35,ESE,112,5.8,7.7,83,0.00,,,0.00,Rainwise IP-100,2013-04-28 15:15:00,
2013-04-28 11:20:00,50.8,47.0,30.34,ESE,112,7.2,11.0,84,0.00,,,0.00,Rainwise IP-100,2013-04-28 15:20:00,
2013-04-28 11:26:00,50.7,46.0,30.34,ESE,112,7.9,9.6,84,0.00,,,0.00,Rainwise IP-100,2013-04-28 15:26:00,
2013-04-28 11:31:00,50.8,47.0,30.34,ESE,112,6.5,10.0,84,0.00,,,0.00,Rainwise IP-100,2013-04-28 15:31:00,
2013-04-28 11:36:00,51.0,47.0,30.34,ESE,112,8.9,10.7,83,0.00,,,0.00,Rainwise IP-100,2013-04-28 15:36:00,
2013-04-28 11:41:00,51.0,47.0,30.34,ENE,67,6.1,10.7,83,0.00,,,0.00,Rainwise IP-100,2013-04-28 15:41:00,
2013-04-28 11:46:00,50.9,47.0,30.35,ESE,112,10.3,13.1,83,0.00,,,0.00,Rainwise IP-100,2013-04-28 15:46:00,
2013-04-28 11:51:00,50.9,47.0,30.35,ESE,112,7.7,10.3,83,0.00,,,0.00,Rainwise IP-100,2013-04-28 15:51:00,
2013-04-28 11:56:00,50.9,47.0,30.35,ESE,112,7.5,10.0,83,0.00,,,0.00,Rainwise IP-100,2013-04-28 15:56:00,
2013-04-28 12:02:00,50.9,47.0,30.35,ENE,67,9.6,9.6,83,0.00,,,0.00,Rainwise IP-100,2013-04-28 16:02:00,
2013-04-28 12:07:00,50.7,46.0,30.35,ESE,112,9.1,11.0,83,0.00,,,0.00,Rainwise IP-100,2013-04-28 16:07:00,
2013-04-28 12:12:00,50.5,46.0,30.34,East,90,8.4,11.2,84,0.00,,,0.00,Rainwise IP-100,2013-04-28 16:12:00,
2013-04-28 12:17:00,50.2,46.0,30.34,East,90,6.8,12.6,85,0.00,,,0.00,Rainwise IP-100,2013-04-28 16:17:00,
2013-04-28 12:22:00,49.8,46.0,30.34,East,90,7.9,11.9,85,0.00,,,0.00,Rainwise IP-100,2013-04-28 16:22:00,
2013-04-28 12:27:00,49.8,46.0,30.34,East,90,8.4,12.1,86,0.00,,,0.00,Rainwise IP-100,2013-04-28 16:27:00,
2013-04-28 12:32:00,49.9,46.0,30.34,ESE,112,6.8,12.1,87,0.00,,,0.00,Rainwise IP-100,2013-04-28 16:32:00,
2013-04-28 12:37:00,49.6,46.0,30.33,East,90,8.9,13.8,87,0.00,,,0.00,Rainwise IP-100,2013-04-28 16:37:00,
2013-04-28 12:43:00,49.7,46.0,30.33,East,90,7.0,12.6,87,0.00,,,0.00,Rainwise IP-100,2013-04-28 16:43:00,
2013-04-28 12:48:00,50.1,46.0,30.33,ESE,112,10.7,12.1,86,0.00,,,0.00,Rainwise IP-100,2013-04-28 16:48:00,
2013-04-28 12:53:00,50.4,46.0,30.33,East,90,11.4,13.8,85,0.00,,,0.00,Rainwise IP-100,2013-04-28 16:53:00,
2013-04-28 12:58:00,50.4,46.0,30.33,East,90,5.4,12.4,85,0.00,,,0.00,Rainwise IP-100,2013-04-28 16:58:00,
2013-04-28 13:03:00,50.7,46.0,30.32,East,90,6.1,11.7,85,0.00,,,0.00,Rainwise IP-100,2013-04-28 17:03:00,
2013-04-28 13:08:00,51.1,47.0,30.33,East,90,7.7,12.1,84,0.00,,,0.00,Rainwise IP-100,2013-04-28 17:08:00,
2013-04-28 13:13:00,51.0,47.0,30.32,East,90,10.5,14.5,83,0.00,,,0.00,Rainwise IP-100,2013-04-28 17:13:00,
2013-04-28 13:18:00,51.0,47.0,30.32,ESE,112,11.2,14.0,84,0.00,,,0.00,Rainwise IP-100,2013-04-28 17:18:00,
2013-04-28 13:23:00,51.0,47.0,30.32,ESE,112,9.1,14.5,83,0.00,,,0.00,Rainwise IP-100,2013-04-28 17:23:00,
2013-04-28 13:29:00,51.1,47.0,30.32,East,90,8.6,13.8,83,0.00,,,0.00,Rainwise IP-100,2013-04-28 17:29:00,
2013-04-28 13:31:00,51.4,46.0,30.32,East,90,13.5,14.5,82,0.00,,,0.00,Rainwise IP-100,2013-04-28 17:31:00,
2013-04-28 13:33:00,51.4,46.0,30.32,ESE,112,10.3,14.5,82,0.00,,,0.00,Rainwise IP-100,2013-04-28 17:33:00,
2013-04-28 13:38:00,51.6,47.0,30.32,ESE,112,9.8,14.9,81,0.00,,,0.00,Rainwise IP-100,2013-04-28 17:38:00,
2013-04-28 13:43:00,51.8,46.0,30.31,ESE,112,11.9,16.1,80,0.00,,,0.00,Rainwise IP-100,2013-04-28 17:43:00,
2013-04-28 13:49:00,52.1,46.0,30.31,East,90,11.0,14.0,79,0.00,,,0.00,Rainwise IP-100,2013-04-28 17:49:00,
2013-04-28 13:54:00,52.6,46.0,30.31,ESE,112,6.3,14.2,78,0.00,,,0.00,Rainwise IP-100,2013-04-28 17:54:00,
2013-04-28 13:59:00,52.9,46.0,30.31,East,90,11.9,13.5,77,0.00,,,0.00,Rainwise IP-100,2013-04-28 17:59:00,
2013-04-28 14:04:00,52.7,45.0,30.31,ENE,67,6.3,14.2,76,0.00,,,0.00,Rainwise IP-100,2013-04-28 18:04:00,
2013-04-28 14:09:00,53.0,45.0,30.31,ESE,112,11.2,13.3,75,0.00,,,0.00,Rainwise IP-100,2013-04-28 18:09:00,
2013-04-28 14:14:00,53.3,45.0,30.31,ESE,112,10.7,13.1,74,0.00,,,0.00,Rainwise IP-100,2013-04-28 18:14:00,
2013-04-28 14:19:00,53.6,45.0,30.31,East,90,9.6,14.0,73,0.00,,,0.00,Rainwise IP-100,2013-04-28 18:19:00,
2013-04-28 14:25:00,54.1,45.0,30.31,ESE,112,10.0,12.8,72,0.00,,,0.00,Rainwise IP-100,2013-04-28 18:25:00,
2013-04-28 14:30:00,54.2,45.0,30.30,East,90,8.6,12.4,72,0.00,,,0.00,Rainwise IP-100,2013-04-28 18:30:00,
2013-04-28 14:35:00,54.6,46.0,30.30,East,90,8.2,10.3,71,0.00,,,0.00,Rainwise IP-100,2013-04-28 18:35:00,
2013-04-28 14:40:00,55.2,45.0,30.30,ESE,112,6.8,10.0,69,0.00,,,0.00,Rainwise IP-100,2013-04-28 18:40:00,
2013-04-28 14:45:00,55.3,45.0,30.30,ESE,112,8.6,10.7,69,0.00,,,0.00,Rainwise IP-100,2013-04-28 18:45:00,
2013-04-28 14:50:00,55.2,45.0,30.30,East,90,6.8,11.0,69,0.00,,,0.00,Rainwise IP-100,2013-04-28 18:50:00,
2013-04-28 14:55:00,55.5,46.0,30.29,ESE,112,5.1,8.6,68,0.00,,,0.00,Rainwise IP-100,2013-04-28 18:55:00,
2013-04-28 15:00:00,55.7,45.0,30.29,East,90,6.8,10.3,67,0.00,,,0.00,Rainwise IP-100,2013-04-28 19:00:00,
2013-04-28 15:05:00,55.5,45.0,30.29,East,90,8.2,10.3,66,0.00,,,0.00,Rainwise IP-100,2013-04-28 19:05:00,
2013-04-28 15:11:00,55.7,45.0,30.29,East,90,9.1,9.8,66,0.00,,,0.00,Rainwise IP-100,2013-04-28 19:11:00,
2013-04-28 15:16:00,55.6,44.0,30.29,ENE,67,8.4,10.5,65,0.00,,,0.00,Rainwise IP-100,2013-04-28 19:16:00,
2013-04-28 15:21:00,55.6,45.0,30.29,East,90,5.1,8.6,66,0.00,,,0.00,Rainwise IP-100,2013-04-28 19:21:00,
2013-04-28 15:26:00,55.6,45.0,30.29,East,90,4.7,7.9,66,0.00,,,0.00,Rainwise IP-100,2013-04-28 19:26:00,
2013-04-28 15:31:00,55.8,45.0,30.28,ESE,112,6.1,6.1,66,0.00,,,0.00,Rainwise IP-100,2013-04-28 19:31:00,
2013-04-28 15:36:00,55.9,45.0,30.29,ESE,112,3.0,7.2,66,0.00,,,0.00,Rainwise IP-100,2013-04-28 19:36:00,
2013-04-28 15:41:00,56.1,45.0,30.28,SSE,157,4.2,4.2,66,0.00,,,0.00,Rainwise IP-100,2013-04-28 19:41:00,
2013-04-28 15:47:00,56.1,46.0,30.29,SSE,157,2.3,4.9,68,0.00,,,0.00,Rainwise IP-100,2013-04-28 19:47:00,
2013-04-28 15:52:00,56.1,46.0,30.29,SSE,157,2.1,3.7,69,0.00,,,0.00,Rainwise IP-100,2013-04-28 19:52:00,
2013-04-28 15:57:00,56.2,46.0,30.29,SE,135,2.3,3.5,69,0.00,,,0.00,Rainwise IP-100,2013-04-28 19:57:00,
2013-04-28 16:02:00,56.1,46.0,30.29,SE,135,3.5,4.0,69,0.00,,,0.00,Rainwise IP-100,2013-04-28 20:02:00,
2013-04-28 16:07:00,56.3,46.0,30.29,SE,135,3.7,4.0,68,0.00,,,0.00,Rainwise IP-100,2013-04-28 20:07:00,
2013-04-28 16:12:00,56.8,45.0,30.29,SSE,157,4.4,6.8,64,0.00,,,0.00,Rainwise IP-100,2013-04-28 20:12:00,
2013-04-28 16:17:00,58.2,44.0,30.28,SSW,202,12.4,13.3,59,0.00,,,0.00,Rainwise IP-100,2013-04-28 20:17:00,
2013-04-28 16:22:00,59.8,43.0,30.28,South,180,12.8,14.9,53,0.00,,,0.00,Rainwise IP-100,2013-04-28 20:22:00,
2013-04-28 16:28:00,60.4,40.0,30.28,South,180,12.1,16.8,47,0.00,,,0.00,Rainwise IP-100,2013-04-28 20:28:00,
2013-04-28 16:33:00,60.4,38.0,30.28,SSW,202,13.8,16.8,43,0.00,,,0.00,Rainwise IP-100,2013-04-28 20:33:00,
2013-04-28 16:38:00,60.5,37.0,30.28,South,180,15.4,15.6,41,0.00,,,0.00,Rainwise IP-100,2013-04-28 20:38:00,
2013-04-28 16:43:00,60.5,36.0,30.28,South,180,11.7,15.9,40,0.00,,,0.00,Rainwise IP-100,2013-04-28 20:43:00,
2013-04-28 16:48:00,60.4,36.0,30.28,South,180,13.8,17.7,40,0.00,,,0.00,Rainwise IP-100,2013-04-28 20:48:00,
2013-04-28 16:53:00,59.9,37.0,30.28,SSW,202,12.4,16.8,42,0.00,,,0.00,Rainwise IP-100,2013-04-28 20:53:00,
2013-04-28 16:58:00,59.4,37.0,30.28,South,180,13.8,16.8,43,0.00,,,0.00,Rainwise IP-100,2013-04-28 20:58:00,
2013-04-28 17:04:00,59.1,37.0,30.28,SSW,202,14.7,17.7,43,0.00,,,0.00,Rainwise IP-100,2013-04-28 21:04:00,
2013-04-28 17:09:00,59.0,36.0,30.28,SSW,202,14.0,20.8,41,0.00,,,0.00,Rainwise IP-100,2013-04-28 21:09:00,
2013-04-28 17:14:00,58.9,36.0,30.28,South,180,15.4,17.5,42,0.00,,,0.00,Rainwise IP-100,2013-04-28 21:14:00,
2013-04-28 17:19:00,58.7,37.0,30.28,South,180,13.3,16.8,44,0.00,,,0.00,Rainwise IP-100,2013-04-28 21:19:00,
2013-04-28 17:24:00,58.5,37.0,30.28,South,180,13.8,16.1,44,0.00,,,0.00,Rainwise IP-100,2013-04-28 21:24:00,
2013-04-28 17:29:00,58.3,37.0,30.28,South,180,10.3,15.6,45,0.00,,,0.00,Rainwise IP-100,2013-04-28 21:29:00,
2013-04-28 17:34:00,57.9,39.0,30.28,South,180,10.0,11.7,48,0.00,,,0.00,Rainwise IP-100,2013-04-28 21:34:00,
2013-04-28 17:39:00,57.8,39.0,30.28,South,180,9.8,13.3,48,0.00,,,0.00,Rainwise IP-100,2013-04-28 21:39:00,
2013-04-28 17:45:00,57.8,39.0,30.27,SSE,157,9.1,10.5,48,0.00,,,0.00,Rainwise IP-100,2013-04-28 21:45:00,
2013-04-28 17:50:00,57.7,39.0,30.27,SSE,157,11.0,12.4,49,0.00,,,0.00,Rainwise IP-100,2013-04-28 21:50:00,
2013-04-28 17:55:00,57.6,38.0,30.27,SSE,157,12.1,14.9,48,0.00,,,0.00,Rainwise IP-100,2013-04-28 21:55:00,
2013-04-28 18:00:00,57.5,38.0,30.27,SSE,157,12.1,14.7,47,0.00,,,0.00,Rainwise IP-100,2013-04-28 22:00:00,
2013-04-28 18:05:00,57.3,37.0,30.27,SSE,157,11.2,14.5,46,0.00,,,0.00,Rainwise IP-100,2013-04-28 22:05:00,
2013-04-28 18:10:00,57.1,37.0,30.26,SSE,157,11.2,12.6,47,0.00,,,0.00,Rainwise IP-100,2013-04-28 22:10:00,
2013-04-28 18:15:00,56.9,37.0,30.27,SSE,157,10.7,13.1,47,0.00,,,0.00,Rainwise IP-100,2013-04-28 22:15:00,
2013-04-28 18:21:00,56.7,37.0,30.27,SSE,157,8.6,12.6,48,0.00,,,0.00,Rainwise IP-100,2013-04-28 22:21:00,
2013-04-28 18:26:00,56.4,38.0,30.26,SSE,157,7.9,11.0,49,0.00,,,0.00,Rainwise IP-100,2013-04-28 22:26:00,
2013-04-28 18:31:00,56.3,38.0,30.26,SSE,157,8.9,11.2,49,0.00,,,0.00,Rainwise IP-100,2013-04-28 22:31:00,
2013-04-28 18:36:00,56.3,37.0,30.26,SSE,157,9.3,11.2,48,0.00,,,0.00,Rainwise IP-100,2013-04-28 22:36:00,
2013-04-28 18:41:00,56.5,36.0,30.26,SSE,157,8.4,11.9,46,0.00,,,0.00,Rainwise IP-100,2013-04-28 22:41:00,
2013-04-28 18:46:00,56.5,36.0,30.26,SE,135,7.7,11.2,45,0.00,,,0.00,Rainwise IP-100,2013-04-28 22:46:00,
2013-04-28 18:51:00,56.2,36.0,30.26,SSE,157,10.0,10.5,47,0.00,,,0.00,Rainwise IP-100,2013-04-28 22:51:00,
2013-04-28 18:56:00,56.1,37.0,30.26,South,180,11.2,11.9,48,0.00,,,0.00,Rainwise IP-100,2013-04-28 22:56:00,
2013-04-28 19:02:00,56.1,37.0,30.26,South,180,13.8,14.7,48,0.00,,,0.00,Rainwise IP-100,2013-04-28 23:02:00,
2013-04-28 19:07:00,56.2,35.0,30.26,SSE,157,9.6,14.7,44,0.00,,,0.00,Rainwise IP-100,2013-04-28 23:07:00,
2013-04-28 19:12:00,56.3,35.0,30.26,SSE,157,11.0,12.6,43,0.00,,,0.00,Rainwise IP-100,2013-04-28 23:12:00,
2013-04-28 19:17:00,56.2,35.0,30.26,SSE,157,10.5,12.6,44,0.00,,,0.00,Rainwise IP-100,2013-04-28 23:17:00,
2013-04-28 19:22:00,56.1,35.0,30.26,SSE,157,9.8,11.2,44,0.00,,,0.00,Rainwise IP-100,2013-04-28 23:22:00,
2013-04-28 19:27:00,56.0,35.0,30.26,SSE,157,9.6,10.7,45,0.00,,,0.00,Rainwise IP-100,2013-04-28 23:27:00,
2013-04-28 19:32:00,55.9,35.0,30.26,SSE,157,9.1,10.5,45,0.00,,,0.00,Rainwise IP-100,2013-04-28 23:32:00,
2013-04-28 19:38:00,55.6,37.0,30.26,SSE,157,9.3,10.7,48,0.00,,,0.00,Rainwise IP-100,2013-04-28 23:38:00,
2013-04-28 19:43:00,55.4,37.0,30.26,SSE,157,9.8,11.0,49,0.00,,,0.00,Rainwise IP-100,2013-04-28 23:43:00,
2013-04-28 19:48:00,55.1,37.0,30.26,SSE,157,8.6,10.3,51,0.00,,,0.00,Rainwise IP-100,2013-04-28 23:48:00,
2013-04-28 19:53:00,54.8,38.0,30.26,SSE,157,10.5,11.4,53,0.00,,,0.00,Rainwise IP-100,2013-04-28 23:53:00,
2013-04-28 19:58:00,54.6,39.0,30.27,SSE,157,7.5,11.0,55,0.00,,,0.00,Rainwise IP-100,2013-04-28 23:58:00,
2013-04-28 20:03:00,54.4,40.0,30.27,SSE,157,9.1,11.9,57,0.00,,,0.00,Rainwise IP-100,2013-04-29 00:03:00,
2013-04-28 20:08:00,54.4,39.0,30.27,SSE,157,11.2,13.1,55,0.00,,,0.00,Rainwise IP-100,2013-04-29 00:08:00,
2013-04-28 20:13:00,54.5,37.0,30.27,SSE,157,9.8,12.1,52,0.00,,,0.00,Rainwise IP-100,2013-04-29 00:13:00,
2013-04-28 20:19:00,54.5,38.0,30.27,SSE,157,9.3,11.4,53,0.00,,,0.00,Rainwise IP-100,2013-04-29 00:19:00,
2013-04-28 20:24:00,54.5,38.0,30.27,SSE,157,9.3,11.2,53,0.00,,,0.00,Rainwise IP-100,2013-04-29 00:24:00,
2013-04-28 20:29:00,54.6,37.0,30.27,SSE,157,8.4,10.3,51,0.00,,,0.00,Rainwise IP-100,2013-04-29 00:29:00,
2013-04-28 20:34:00,54.6,37.0,30.27,SSE,157,7.7,8.9,50,0.00,,,0.00,Rainwise IP-100,2013-04-29 00:34:00,
2013-04-28 20:39:00,54.5,37.0,30.27,SSE,157,5.6,8.9,50,0.00,,,0.00,Rainwise IP-100,2013-04-29 00:39:00,
2013-04-28 20:44:00,54.4,37.0,30.27,SSE,157,8.2,8.6,51,0.00,,,0.00,Rainwise IP-100,2013-04-29 00:44:00,
2013-04-28 20:49:00,54.4,37.0,30.27,SSE,157,6.8,9.1,51,0.00,,,0.00,Rainwise IP-100,2013-04-29 00:49:00,
2013-04-28 20:55:00,54.3,37.0,30.27,SSE,157,8.4,9.6,52,0.00,,,0.00,Rainwise IP-100,2013-04-29 00:55:00,
2013-04-28 21:00:00,54.3,37.0,30.27,SSE,157,7.5,8.9,51,0.00,,,0.00,Rainwise IP-100,2013-04-29 01:00:00,
2013-04-28 21:05:00,54.4,36.0,30.27,SSE,157,8.4,9.6,49,0.00,,,0.00,Rainwise IP-100,2013-04-29 01:05:00,
2013-04-28 21:10:00,54.4,36.0,30.28,SSE,157,6.8,8.6,49,0.00,,,0.00,Rainwise IP-100,2013-04-29 01:10:00,
2013-04-28 21:15:00,54.4,37.0,30.28,SSE,157,6.8,9.1,50,0.00,,,0.00,Rainwise IP-100,2013-04-29 01:15:00,
2013-04-28 21:20:00,54.4,36.0,30.28,SSE,157,7.9,10.0,49,0.00,,,0.00,Rainwise IP-100,2013-04-29 01:20:00,
2013-04-28 21:25:00,54.3,36.0,30.28,SE,135,5.4,8.4,49,0.00,,,0.00,Rainwise IP-100,2013-04-29 01:25:00,
2013-04-28 21:30:00,54.2,36.0,30.28,SE,135,4.9,6.5,50,0.00,,,0.00,Rainwise IP-100,2013-04-29 01:30:00,
2013-04-28 21:36:00,54.0,37.0,30.28,SE,135,4.7,5.8,52,0.00,,,0.00,Rainwise IP-100,2013-04-29 01:36:00,
2013-04-28 21:41:00,53.9,37.0,30.28,ESE,112,4.4,5.4,52,0.00,,,0.00,Rainwise IP-100,2013-04-29 01:41:00,
2013-04-28 21:46:00,53.9,37.0,30.28,ESE,112,4.2,5.8,52,0.00,,,0.00,Rainwise IP-100,2013-04-29 01:46:00,
2013-04-28 21:51:00,53.9,37.0,30.28,SE,135,4.7,5.6,52,0.00,,,0.00,Rainwise IP-100,2013-04-29 01:51:00,
2013-04-28 21:53:00,53.9,36.0,30.28,ESE,112,4.0,5.6,51,0.00,,,0.00,Rainwise IP-100,2013-04-29 01:53:00,
2013-04-28 21:58:00,54.0,36.0,30.28,ESE,112,4.0,5.1,50,0.00,,,0.00,Rainwise IP-100,2013-04-29 01:58:00,
2013-04-28 22:03:00,53.9,36.0,30.28,ESE,112,4.4,5.6,50,0.00,,,0.00,Rainwise IP-100,2013-04-29 02:03:00,
2013-04-28 22:08:00,53.8,36.0,30.28,ESE,112,5.1,5.6,50,0.00,,,0.00,Rainwise IP-100,2013-04-29 02:08:00,
2013-04-28 22:13:00,53.6,36.0,30.28,ESE,112,4.4,5.4,51,0.00,,,0.00,Rainwise IP-100,2013-04-29 02:13:00,
2013-04-28 22:18:00,53.5,36.0,30.28,ESE,112,4.4,5.1,52,0.00,,,0.00,Rainwise IP-100,2013-04-29 02:18:00,
2013-04-28 22:23:00,53.4,37.0,30.29,ESE,112,4.9,4.9,53,0.00,,,0.00,Rainwise IP-100,2013-04-29 02:23:00,
2013-04-28 22:29:00,53.3,37.0,30.29,ESE,112,4.4,5.4,54,0.00,,,0.00,Rainwise IP-100,2013-04-29 02:29:00,
2013-04-28 22:34:00,53.2,37.0,30.29,ESE,112,4.2,5.4,54,0.00,,,0.00,Rainwise IP-100,2013-04-29 02:34:00,
2013-04-28 22:39:00,53.2,37.0,30.29,ESE,112,4.2,5.4,54,0.00,,,0.00,Rainwise IP-100,2013-04-29 02:39:00,
2013-04-28 22:44:00,53.2,37.0,30.28,ESE,112,3.3,4.9,55,0.00,,,0.00,Rainwise IP-100,2013-04-29 02:44:00,
2013-04-28 22:49:00,53.0,37.0,30.29,ESE,112,2.3,4.7,56,0.00,,,0.00,Rainwise IP-100,2013-04-29 02:49:00,
2013-04-28 22:54:00,52.9,38.0,30.28,ESE,112,3.7,5.1,57,0.00,,,0.00,Rainwise IP-100,2013-04-29 02:54:00,
2013-04-28 22:59:00,52.9,38.0,30.29,ESE,112,2.8,4.4,57,0.00,,,0.00,Rainwise IP-100,2013-04-29 02:59:00,
2013-04-28 23:04:00,52.9,38.0,30.28,ESE,112,2.3,4.4,58,0.00,,,0.00,Rainwise IP-100,2013-04-29 03:04:00,
2013-04-28 23:10:00,52.9,38.0,30.29,ESE,112,4.0,4.7,58,0.00,,,0.00,Rainwise IP-100,2013-04-29 03:10:00,
2013-04-28 23:15:00,52.8,39.0,30.29,ESE,112,2.1,4.0,59,0.00,,,0.00,Rainwise IP-100,2013-04-29 03:15:00,
2013-04-28 23:20:00,52.8,39.0,30.29,ESE,112,2.1,3.5,59,0.00,,,0.00,Rainwise IP-100,2013-04-29 03:20:00,
2013-04-28 23:25:00,52.8,39.0,30.29,ESE,112,2.6,3.0,60,0.00,,,0.00,Rainwise IP-100,2013-04-29 03:25:00,
2013-04-28 23:30:00,52.7,39.0,30.29,ESE,112,1.6,2.8,60,0.00,,,0.00,Rainwise IP-100,2013-04-29 03:30:00,
2013-04-28 23:35:00,52.6,40.0,30.29,ESE,112,1.2,2.1,63,0.00,,,0.00,Rainwise IP-100,2013-04-29 03:35:00,
2013-04-28 23:40:00,52.5,41.0,30.29,ESE,112,2.1,2.6,65,0.00,,,0.00,Rainwise IP-100,2013-04-29 03:40:00,
2013-04-28 23:45:00,52.5,41.0,30.29,ESE,112,1.9,3.0,64,0.00,,,0.00,Rainwise IP-100,2013-04-29 03:45:00,
2013-04-28 23:51:00,52.5,41.0,30.29,ESE,112,0.0,2.6,64,0.00,,,0.00,Rainwise IP-100,2013-04-29 03:51:00,
2013-04-28 23:56:00,52.6,40.0,30.29,ESE,112,1.4,1.9,63,0.00,,,0.00,Rainwise IP-100,2013-04-29 03:56:00,